TimeEDT,TemperatureF,Dew PointF,Humidity,Sea Level PressureIn,VisibilityMPH,Wind Direction,Wind SpeedMPH,Gust SpeedMPH,PrecipitationIn,Events,Conditions,WindDirDegrees,DateUTC
12:54 AM,63.0,57.9,84,29.93,10.0,Calm,Calm,-,N/A,,Mostly Cloudy,0,2013-09-26 04:54:00
1:54 AM,63.0,57.0,81,29.93,10.0,Calm,Calm,-,N/A,,Mostly Cloudy,0,2013-09-26 05:54:00
2:54 AM,62.1,57.0,84,29.92,10.0,East,3.5,-,N/A,,Mostly Cloudy,80,2013-09-26 06:54:00
3:54 AM,63.0,55.9,78,29.92,10.0,Calm,Calm,-,N/A,,Mostly Cloudy,0,2013-09-26 07:54:00
4:54 AM,62.1,55.9,80,29.92,10.0,Calm,Calm,-,N/A,,Mostly Cloudy,0,2013-09-26 08:54:00
5:54 AM,60.1,55.9,86,29.93,10.0,North,3.5,-,N/A,,Mostly Cloudy,350,2013-09-26 09:54:00
6:54 AM,60.1,55.0,83,29.94,10.0,NNW,6.9,-,N/A,,Mostly Cloudy,340,2013-09-26 10:54:00
7:54 AM,60.1,55.9,86,29.96,10.0,North,5.8,-,N/A,,Mostly Cloudy,360,2013-09-26 11:54:00
8:54 AM,62.1,57.0,84,29.98,10.0,NNE,6.9,-,N/A,,Mostly Cloudy,20,2013-09-26 12:54:00
9:54 AM,69.1,59.0,70,30.00,10.0,NNE,8.1,-,N/A,,Mostly Cloudy,30,2013-09-26 13:54:00
10:54 AM,69.1,59.0,70,30.01,10.0,NNE,8.1,-,N/A,,Mostly Cloudy,30,2013-09-26 14:54:00
11:54 AM,73.9,52.0,46,30.00,10.0,NNE,12.7,-,N/A,,Mostly Cloudy,30,2013-09-26 15:54:00
12:54 PM,75.0,54.0,48,30.00,10.0,NE,9.2,-,N/A,,Mostly Cloudy,40,2013-09-26 16:54:00
1:54 PM,75.9,53.1,45,29.99,10.0,NE,6.9,-,N/A,,Mostly Cloudy,40,2013-09-26 17:54:00
2:54 PM,77.0,52.0,42,29.98,10.0,ENE,6.9,-,N/A,,Mostly Cloudy,60,2013-09-26 18:54:00
3:54 PM,75.9,52.0,43,29.99,10.0,ENE,9.2,-,N/A,,Mostly Cloudy,60,2013-09-26 19:54:00
4:54 PM,75.0,54.0,48,29.99,10.0,ENE,5.8,-,N/A,,Mostly Cloudy,70,2013-09-26 20:54:00
5:54 PM,73.9,51.1,45,30.00,10.0,ENE,9.2,-,N/A,,Scattered Clouds,70,2013-09-26 21:54:00
6:54 PM,68.0,50.0,52,30.02,10.0,ENE,5.8,-,N/A,,Scattered Clouds,60,2013-09-26 22:54:00
7:54 PM,64.9,52.0,63,30.04,10.0,NE,5.8,-,N/A,,Scattered Clouds,50,2013-09-26 23:54:00
8:54 PM,62.1,53.1,72,30.05,10.0,NE,5.8,-,N/A,,Scattered Clouds,50,2013-09-27 00:54:00
9:54 PM,61.0,53.1,75,30.07,10.0,NE,5.8,-,N/A,,Partly Cloudy,40,2013-09-27 01:54:00
10:54 PM,60.1,53.1,78,30.08,10.0,NE,3.5,-,N/A,,Partly Cloudy,50,2013-09-27 02:54:00
11:54 PM,60.1,53.1,78,30.08,10.0,Calm,Calm,-,N/A,,Partly Cloudy,0,2013-09-27 03:54:00